When you browse on this site, cookies collect data to enhance your experience and personalize the content and advertising you see.
Visit our Privacy Policy to learn more. By continuing to use the site, you agree to this use of cookies and data.
  • In Hungary
  • List of Countries
  • For 7 days
  • Water Temperature
  • Weather Map
  • News
  • Weather Widgets
  • user-avatar
    Login

    Hourly Weather Abovyan

    Today, 28 May, Thursday

    Time Temperature Precipitation Wind Pressure Humidity
    00:00 +19°C° 0 mm 1 mps 674 mmHg 47%
    01:00 +19°C° 0 mm 1 mps 674 mmHg 48%
    02:00 +19°C° 0 mm 1 mps 674 mmHg 49%
    03:00 +18°C° 0 mm 1 mps 674 mmHg 50%
    04:00 +19°C° 0 mm 1 mps 674 mmHg 51%
    05:00 +20°C° 0 mm 1 mps 674 mmHg 53%
    06:00 +21°C° 0 mm 1 mps 674 mmHg 54%
    07:00 +22°C° 0 mm 1 mps 674 mmHg 49%
    08:00 +24°C° 0 mm 1 mps 674 mmHg 44%
    09:00 +26°C° 0 mm 1 mps 674 mmHg 39%
    10:00 +27°C° 0 mm 2 mps 674 mmHg 36%
    11:00 +28°C° 0 mm 2 mps 674 mmHg 34%
    12:00 +29°C° 0 mm 2 mps 674 mmHg 31%
    13:00 +30°C° 0 mm 2 mps 674 mmHg 29%
    14:00 +30°C° 0 mm 2 mps 674 mmHg 27%
    15:00 +31°C° 0 mm 2 mps 673 mmHg 25%
    16:00 +29°C° 0.1 mm 2 mps 673 mmHg 34%
    17:00 +27°C° 0.1 mm 2 mps 672 mmHg 43%
    18:00 +24°C° 0.1 mm 2 mps 672 mmHg 53%
    19:00 +23°C° 0.1 mm 2 mps 672 mmHg 52%
    20:00 +22°C° 0.1 mm 1 mps 672 mmHg 51%
    21:00 +21°C° 0.1 mm 1 mps 672 mmHg 51%
    22:00 +20°C° 0 mm 1 mps 672 mmHg 51%
    23:00 +20°C° 0 mm 1 mps 672 mmHg 51%

    Tomorrow, 29 May, Friday

    Time Temperature Precipitation Wind Pressure Humidity
    00:00 +20°C° 0 mm 1 mps 671 mmHg 52%
    01:00 +19°C° 0 mm 1 mps 671 mmHg 53%
    02:00 +19°C° 0 mm 1 mps 671 mmHg 54%
    03:00 +18°C° 0 mm 1 mps 670 mmHg 54%
    04:00 +19°C° 0 mm 1 mps 670 mmHg 55%
    05:00 +20°C° 0 mm 1 mps 670 mmHg 56%
    06:00 +21°C° 0 mm 1 mps 670 mmHg 56%
    07:00 +23°C° 0 mm 1 mps 670 mmHg 50%
    08:00 +25°C° 0 mm 2 mps 670 mmHg 43%
    09:00 +27°C° 0 mm 2 mps 670 mmHg 36%
    10:00 +28°C° 0 mm 3 mps 670 mmHg 34%
    11:00 +30°C° 0 mm 4 mps 670 mmHg 32%
    12:00 +32°C° 0 mm 4 mps 670 mmHg 30%
    13:00 +32°C° 0.1 mm 4 mps 669 mmHg 30%
    14:00 +32°C° 0.1 mm 4 mps 669 mmHg 31%
    15:00 +32°C° 0.1 mm 4 mps 669 mmHg 32%
    16:00 +30°C° 0 mm 4 mps 669 mmHg 32%
    17:00 +29°C° 0 mm 5 mps 669 mmHg 33%
    18:00 +28°C° 0 mm 6 mps 669 mmHg 33%
    19:00 +26°C° 0 mm 5 mps 669 mmHg 34%
    20:00 +23°C° 0 mm 4 mps 669 mmHg 35%
    21:00 +21°C° 0 mm 3 mps 669 mmHg 36%
    22:00 +21°C° 0 mm 3 mps 669 mmHg 38%
    23:00 +20°C° 0 mm 3 mps 669 mmHg 40%

    Day after tomorrow, 30 May, Saturday

    Time Temperature Precipitation Wind Pressure Humidity
    00:00 +19°C° 0 mm 3 mps 669 mmHg 42%
    01:00 +18°C° 0 mm 3 mps 669 mmHg 41%
    02:00 +18°C° 0 mm 2 mps 669 mmHg 40%
    03:00 +17°C° 0 mm 2 mps 669 mmHg 39%
    04:00 +17°C° 0 mm 2 mps 669 mmHg 40%
    05:00 +17°C° 0 mm 2 mps 669 mmHg 41%
    06:00 +18°C° 0 mm 2 mps 670 mmHg 42%
    07:00 +19°C° 0 mm 2 mps 670 mmHg 36%
    08:00 +21°C° 0 mm 2 mps 670 mmHg 31%
    09:00 +24°C° 0 mm 2 mps 670 mmHg 26%
    10:00 +25°C° 0 mm 2 mps 670 mmHg 24%
    11:00 +26°C° 0 mm 2 mps 670 mmHg 22%
    12:00 +27°C° 0 mm 2 mps 670 mmHg 20%
    13:00 +27°C° 0 mm 2 mps 670 mmHg 20%
    14:00 +28°C° 0 mm 2 mps 670 mmHg 20%
    15:00 +28°C° 0 mm 2 mps 670 mmHg 20%
    16:00 +28°C° 0 mm 2 mps 670 mmHg 24%
    17:00 +27°C° 0 mm 2 mps 670 mmHg 28%
    18:00 +27°C° 0 mm 2 mps 670 mmHg 32%
    19:00 +25°C° 0 mm 2 mps 670 mmHg 32%
    20:00 +21°C° 0 mm 2 mps 670 mmHg 32%
    21:00 +19°C° 0 mm 3 mps 671 mmHg 32%
    22:00 +19°C° 0 mm 3 mps 671 mmHg 33%
    23:00 +18°C° 0 mm 2 mps 671 mmHg 33%

    31 May, Sunday

    Time Temperature Precipitation Wind Pressure Humidity
    00:00 +17°C° 0 mm 2 mps 671 mmHg 33%
    01:00 +16°C° 0 mm 2 mps 671 mmHg 34%
    02:00 +16°C° 0 mm 2 mps 671 mmHg 35%
    03:00 +15°C° 0 mm 2 mps 671 mmHg 36%
    04:00 +16°C° 0 mm 2 mps 671 mmHg 40%
    05:00 +16°C° 0 mm 2 mps 672 mmHg 45%
    06:00 +17°C° 0 mm 2 mps 672 mmHg 49%
    07:00 +19°C° 0 mm 2 mps 673 mmHg 43%
    08:00 +20°C° 0 mm 2 mps 673 mmHg 38%
    09:00 +23°C° 0 mm 2 mps 673 mmHg 33%
    10:00 +24°C° 0 mm 2 mps 673 mmHg 30%
    11:00 +25°C° 0 mm 2 mps 673 mmHg 27%
    12:00 +26°C° 0 mm 2 mps 673 mmHg 24%
    13:00 +27°C° 0 mm 2 mps 673 mmHg 23%
    14:00 +27°C° 0 mm 2 mps 673 mmHg 23%
    15:00 +28°C° 0 mm 2 mps 672 mmHg 23%
    16:00 +27°C° 0 mm 1 mps 672 mmHg 26%
    17:00 +27°C° 0 mm 1 mps 672 mmHg 30%
    18:00 +27°C° 0 mm 1 mps 672 mmHg 33%
    19:00 +24°C° 0 mm 1 mps 672 mmHg 38%
    20:00 +21°C° 0 mm 2 mps 672 mmHg 42%
    21:00 +18°C° 0 mm 2 mps 672 mmHg 46%
    22:00 +18°C° 0 mm 2 mps 672 mmHg 47%
    23:00 +18°C° 0 mm 2 mps 671 mmHg 48%

    1 June, Monday

    Time Temperature Precipitation Wind Pressure Humidity
    00:00 +17°C° 0 mm 2 mps 671 mmHg 48%
    01:00 +16°C° 0 mm 2 mps 671 mmHg 49%
    02:00 +16°C° 0 mm 2 mps 671 mmHg 50%
    03:00 +15°C° 0 mm 2 mps 671 mmHg 52%
    04:00 +16°C° 0 mm 2 mps 671 mmHg 52%
    05:00 +18°C° 0 mm 1 mps 671 mmHg 53%
    06:00 +19°C° 0 mm 1 mps 672 mmHg 54%
    07:00 +21°C° 0 mm 1 mps 672 mmHg 49%
    08:00 +21°C° 0 mm 2 mps 672 mmHg 44%
    09:00 +24°C° 0 mm 2 mps 672 mmHg 39%
    10:00 +25°C° 0 mm 2 mps 672 mmHg 37%
    11:00 +26°C° 0 mm 3 mps 672 mmHg 35%
    12:00 +27°C° 0 mm 3 mps 672 mmHg 33%
    13:00 +28°C° 0 mm 3 mps 672 mmHg 31%
    14:00 +29°C° 0 mm 2 mps 672 mmHg 30%
    15:00 +29°C° 0 mm 2 mps 672 mmHg 28%
    16:00 +29°C° 0 mm 2 mps 671 mmHg 30%
    17:00 +28°C° 0 mm 3 mps 671 mmHg 32%
    18:00 +28°C° 0 mm 3 mps 671 mmHg 34%
    19:00 +26°C° 0 mm 3 mps 671 mmHg 33%
    20:00 +24°C° 0 mm 3 mps 671 mmHg 33%
    21:00 +21°C° 0 mm 3 mps 671 mmHg 32%
    22:00 +20°C° 0 mm 2 mps 671 mmHg 34%
    23:00 +19°C° 0 mm 2 mps 670 mmHg 35%

    2 June, Tuesday

    Time Temperature Precipitation Wind Pressure Humidity
    00:00 +19°C° 0 mm 2 mps 670 mmHg 37%
    01:00 +19°C° 0 mm 1 mps 670 mmHg 38%
    02:00 +19°C° 0 mm 1 mps 670 mmHg 40%
    03:00 +18°C° 0 mm 1 mps 669 mmHg 41%
    04:00 +19°C° 0 mm 1 mps 670 mmHg 43%
    05:00 +20°C° 0 mm 1 mps 670 mmHg 45%
    06:00 +21°C° 0 mm 1 mps 670 mmHg 47%
    07:00 +23°C° 0 mm 2 mps 670 mmHg 41%
    08:00 +25°C° 0 mm 2 mps 670 mmHg 35%
    09:00 +27°C° 0 mm 2 mps 670 mmHg 30%
    10:00 +28°C° 0 mm 2 mps 670 mmHg 29%
    11:00 +29°C° 0 mm 3 mps 670 mmHg 27%
    12:00 +30°C° 0 mm 3 mps 670 mmHg 26%
    13:00 +31°C° 0 mm 3 mps 670 mmHg 25%
    14:00 +31°C° 0 mm 3 mps 670 mmHg 24%
    15:00 +33°C° 0 mm 3 mps 669 mmHg 23%
    16:00 +32°C° 0 mm 4 mps 669 mmHg 26%
    17:00 +30°C° 0 mm 4 mps 669 mmHg 29%
    18:00 +30°C° 0 mm 4 mps 668 mmHg 32%
    19:00 +28°C° 0 mm 4 mps 668 mmHg 32%
    20:00 +26°C° 0 mm 4 mps 668 mmHg 32%
    21:00 +24°C° 0 mm 3 mps 668 mmHg 33%
    22:00 +22°C° 0 mm 3 mps 668 mmHg 34%
    23:00 +21°C° 0 mm 3 mps 668 mmHg 36%
    Show more